This demonstration page uses our WeatherBlox Daily Observations layout. Learn more.

Left ArrowRight Arrow

34.74481, -87.66753

Hourly Observations for January 1, 2022

Temp ( °F °C ) Dew Point ( °F °C ) Humidity (%) Winds ( mph kmh ) Pressure ( in mb ) Visibility ( mi km ) Precip ( " mm )
12:48 am 00:48 Cloudy 72 22 66 19 83 83 SSW 12 19 29.77 1008 10 16 0.00 0.00
12:53 am 00:53 Cloudy 72 22.2 66 18.9 82 82 SSW 13 20 29.77 1008 10 16 0.00 0.00
1:04 am 01:04 Cloudy 72 22.2 66 18.9 82 82 SSW 12 19 29.76 1008 10 16 0.00 0.00
1:19 am 01:19 Cloudy 73 22.8 66 18.9 79 79 SSW 14 22 29.77 1008 10 16 0.00 0.00
1:42 am 01:42 Cloudy 73 22.8 66 18.9 79 79 SSW 15 24 29.77 1008 10 16 0.00 0.00
1:53 am 01:53 Cloudy 73 22.8 65 18.3 76 76 SW 14 22 29.77 1008 10 16 0.00 0.00
2:42 am 02:42 Cloudy 73 22.8 65 18.3 76 76 SW 15 24 29.77 1008 10 16 0.00 0.00
2:53 am 02:53 Cloudy 73 22.8 65 18.3 76 76 SW 12 19 29.78 1008 10 16 0.00 0.00
3:53 am 03:53 Cloudy 73 22.8 66 18.9 79 79 SW 12 19 29.78 1009 10 16 0.00 0.00
4:53 am 04:53 Mostly Cloudy 72 22.2 66 18.9 82 82 SSW 9 15 29.77 1008 10 16 0.00 0.00
5:53 am 05:53 Cloudy 72 22.2 66 18.9 82 82 SSW 8 13 29.78 1008 10 16 0.00 0.00
6:53 am 06:53 Cloudy 73 22.8 66 18.9 79 79 SSW 15 24 29.77 1008 10 16 0.00 0.00
7:53 am 07:53 Cloudy 74 23.3 66 18.9 76 76 SSW 15 24 29.76 1008 10 16 0.00 0.00
8:51 am 08:51 Mostly Cloudy 73 23 66 19 78 78 SSW 18 30 29.76 1008 10 16 0.00 0.00
8:53 am 08:53 Mostly Cloudy 74 23.3 66 18.9 76 76 SSW 17 28 29.76 1008 10 16 0.00 0.00
9:02 am 09:02 Mostly Cloudy 75 23.9 66 18.9 74 74 SSW 17 28 29.77 1008 10 16 0.00 0.00
9:53 am 09:53 Cloudy 76 24.4 66 18.9 72 72 SSW 17 28 29.77 1008 10 16 0.00 0.00
10:06 am 10:06 Cloudy 76 24.4 66 18.9 72 72 SSW 18 30 29.76 1008 10 16 0.00 0.00
10:53 am 10:53 Cloudy 76 24.4 65 18.3 69 69 SW 22 35 29.75 1007 10 16 0.00 0.00
11:53 am 11:53 Mostly Cloudy 79 26.1 65 18.3 62 62 SSW 22 35 29.70 1006 10 16 0.00 0.00
12:14 pm 12:14 Cloudy with Heavy Rain 73 22.8 66 18.9 79 79 WSW 22 35 29.69 1005 1 2 0.15 3.81
12:26 pm 12:26 Mostly Cloudy with Light Rain 74 23.3 67 19.4 79 79 SW 16 26 29.68 1005 5 8 0.22 5.59
12:53 pm 12:53 Cloudy 77 25 65 18.3 66 66 SSW 31 50 29.65 1004 10 16 0.22 5.59
1:53 pm 13:53 Mostly Cloudy 79 26.1 64 17.8 60 60 SW 20 31 29.61 1003 10 16 0.00 0.00
2:53 pm 14:53 Cloudy 78 25.6 64 17.8 62 62 S 16 26 29.60 1002 10 16 0.00 0.00
3:53 pm 15:53 Cloudy 76 24.4 65 18.3 69 69 VRB 6 9 29.58 1002 10 16 0.00 0.00
4:12 pm 16:12 Cloudy with Nearby Thunderstorms 76 24.4 65 18.3 69 69 WNW 28 44 29.61 1003 10 16 0.00 0.00
4:15 pm 16:15 Cloudy with Nearby Thunderstorms 72 22.2 66 18.9 82 82 WNW 22 35 29.62 1003 2 2 0.09 2.29
4:23 pm 16:23 Cloudy with Light Rain 70 21.1 66 18.9 87 87 NW 12 19 29.62 1003 2 3 0.09 2.29
4:30 pm 16:30 Cloudy 70 21.1 66 18.9 87 87 NNW 10 17 29.62 1003 10 16 0.09 2.29
4:53 pm 16:53 Cloudy with Nearby Thunderstorms 66 18.9 64 17.8 93 93 NNE 9 15 29.59 1002 10 16 0.09 2.29
5:12 pm 17:12 Cloudy with Nearby Thunderstorms 65 18.3 62 16.7 90 90 W 22 35 29.66 1004 5 8 0.05 1.27
5:15 pm 17:15 Cloudy with Heavy Rain 64 17.8 61 16.1 90 90 NNW 17 28 29.66 1004 3 5 0.07 1.78
5:25 pm 17:25 Cloudy with Heavy Rain 61 16.1 59 15 93 93 N 13 20 29.65 1004 3 4 0.16 4.06
5:29 pm 17:29 Cloudy with Nearby Thunderstorms 62 16.7 59 15 90 90 N 13 20 29.64 1004 3 5 0.16 4.06
5:39 pm 17:39 Cloudy with Nearby Thunderstorms 61 16.1 59 15 93 93 N 9 15 29.65 1004 10 16 0.17 4.32
5:53 pm 17:53 Cloudy with Thunderstorms 61 16.1 58 14.4 90 90 N 9 15 29.63 1003 7 11 0.24 6.10
5:56 pm 17:56 Cloudy with Strong Thunderstorms 60 15.6 59 15 96 96 NNE 8 13 29.66 1004 3 4 0.14 3.56
5:58 pm 17:58 Cloudy with Strong Thunderstorms 60 15.6 59 15 96 96 N 7 11 29.66 1004 2 3 0.17 4.32
6:03 pm 18:03 Cloudy with Heavy Rain 60 15.6 58 14.4 93 93 NE 9 15 29.67 1005 2 2 0.20 5.08
6:08 pm 18:08 Cloudy with Rain 61 16.1 58 14.4 90 90 N 9 15 29.67 1005 3 5 0.22 5.59
6:15 pm 18:15 Cloudy with Rain 60 15.6 59 15 96 96 NE 8 13 29.65 1004 3 4 0.34 8.64
6:30 pm 18:30 Cloudy with Light Rain 61 16.1 59 15 93 93 Calm 29.67 1005 9 14 0.38 9.65
6:37 pm 18:37 Cloudy with Light Rain 61 16.1 59 15 93 93 ENE 6 9 29.66 1004 10 16 0.39 9.91
6:53 pm 18:53 Cloudy 61 16.1 58 14.4 90 90 E 5 7 29.65 1004 10 16 0.39 9.91
7:12 pm 19:12 Cloudy 61 16.1 58 14.4 90 90 NE 8 13 29.68 1005 10 16 0.00 0.00
7:53 pm 19:53 Cloudy 60 15.6 57 13.9 90 90 NE 7 11 29.65 1004 10 16 0.00 0.00
8:21 pm 20:21 Cloudy 60 15.6 57 13.9 90 90 SE 8 13 29.70 1006 10 16 0.00 0.00
8:53 pm 20:53 Cloudy with Heavy Rain 60 15.6 57 13.9 90 90 NE 12 19 29.66 1004 3 4 0.13 3.30
8:58 pm 20:58 Cloudy with Heavy Rain 60 15.6 57 13.9 90 90 NNE 9 15 29.69 1005 3 5 0.02 0.51
9:07 pm 21:07 Cloudy with Heavy Rain 60 15.6 58 14.4 93 93 NE 7 11 29.69 1005 3 4 0.13 3.30
9:19 pm 21:19 Cloudy with Rain 59 15 57 13.9 93 93 NE 6 9 29.69 1005 3 5 0.23 5.84
9:53 pm 21:53 Cloudy with Light Rain 60 15.6 57 13.9 90 90 ENE 5 7 29.68 1005 7 11 0.27 6.86
10:29 pm 22:29 Cloudy with Light Rain 59 15 57 13.9 93 93 E 3 6 29.70 1006 10 16 0.01 0.25
10:46 pm 22:46 Cloudy with Rain 59 15 58 14.4 96 96 Calm 29.69 1005 2 3 0.11 2.79
10:53 pm 22:53 Cloudy with Rain 59 15 58 14.4 96 96 Calm 29.68 1005 4 6 0.13 3.30
11:53 pm 23:53 Cloudy 59 15 58 14.4 96 96 W 3 6 29.70 1006 10 16 0.02 0.51

Powered by AerisWeather